| time (UTC) | temp C | wind direction | speed KPH | gust KPH | rain 1hr cm | rain 24hr cm | rain mn cm | humidity % | barometer mb |
| 20260904170013 | 31 | 306 | 1.6 | 4.8 | 0.00 | 0.00 | 0.00 | 49 | 1015.2 |
| 20260904164513 | 31 | 312 | 0.0 | 4.8 | 0.00 | 0.00 | 0.00 | 47 | 1015.2 |
| 20260904163011 | 32 | 333 | 1.6 | 8.0 | 0.00 | 0.00 | 0.00 | 45 | 1015.3 |
| 20260904161510 | 32 | 148 | 1.6 | 4.8 | 0.00 | 0.00 | 0.00 | 43 | 1015.3 |
| 20260904160010 | 32 | 172 | 1.6 | 4.8 | 0.00 | 0.00 | 0.00 | 41 | 1015.4 |
| 20260904154507 | 32 | 208 | 6.4 | 16.1 | 0.00 | 0.00 | 0.00 | 43 | 1015.5 |
| 20260904153020 | 32 | 170 | 6.4 | 14.5 | 0.00 | 0.00 | 0.00 | 45 | 1015.6 |
| 20260904151505 | 32 | 271 | 4.8 | 14.5 | 0.00 | 0.00 | 0.00 | 45 | 1015.7 |
| 20260904150004 | 33 | 188 | 4.8 | 9.7 | 0.00 | 0.00 | 0.00 | 43 | 1015.8 |
| 20260904144503 | 33 | 300 | 6.4 | 11.3 | 0.00 | 0.00 | 0.00 | 43 | 1015.9 |
| 20260904143101 | 33 | 319 | 3.2 | 12.9 | 0.00 | 0.00 | 0.00 | 43 | 1015.9 |
| 20260904141622 | 32 | 272 | 4.8 | 14.5 | 0.00 | 0.00 | 0.00 | 46 | 1016.1 |
| 20260904140107 | 32 | 178 | 3.2 | 14.5 | 0.00 | 0.00 | 0.00 | 45 | 1016.0 |
| 20260904134558 | 31 | 219 | 6.4 | 14.5 | 0.00 | 0.00 | 0.00 | 47 | 1016.3 |
| 20260904133108 | 31 | 5 | 3.2 | 16.1 | 0.00 | 0.00 | 0.00 | 47 | 1016.3 |
| 20260904131608 | 32 | 222 | 4.8 | 17.7 | 0.00 | 0.00 | 0.00 | 47 | 1016.4 |
| 20260904130051 | 31 | 169 | 4.8 | 11.3 | 0.00 | 0.00 | 0.00 | 47 | 1016.6 |
| 20260904124547 | 31 | 140 | 4.8 | 14.5 | 0.00 | 0.00 | 0.00 | 49 | 1016.8 |
| 20260904123045 | 31 | 163 | 3.2 | 8.0 | 0.00 | 0.00 | 0.00 | 48 | 1016.9 |
| 20260904121544 | 31 | 231 | 6.4 | 9.7 | 0.00 | 0.00 | 0.00 | 48 | 1017.1 |
| 20260904120045 | 31 | 208 | 3.2 | 6.4 | 0.00 | 0.00 | 0.00 | 49 | 1017.2 |
| 20260904114538 | 31 | 161 | 4.8 | 12.9 | 0.00 | 0.00 | 0.00 | 48 | 1017.2 |
| 20260904113039 | 30 | 111 | 3.2 | 12.9 | 0.00 | 0.00 | 0.00 | 48 | 1017.4 |
| 20260904111535 | 30 | 146 | 3.2 | 9.7 | 0.00 | 0.00 | 0.00 | 50 | 1017.5 |
| 20260904110033 | 30 | 267 | 4.8 | 11.3 | 0.00 | 0.00 | 0.00 | 50 | 1017.6 |
| 20260904104531 | 29 | 221 | 4.8 | 11.3 | 0.00 | 0.00 | 0.00 | 50 | 1017.8 |
| 20260904103028 | 29 | 13 | 1.6 | 11.3 | 0.00 | 0.00 | 0.00 | 49 | 1017.9 |
| 20260904101526 | 29 | 151 | 1.6 | 6.4 | 0.00 | 0.00 | 0.00 | 50 | 1018.1 |
| 20260904100022 | 28 | 116 | 4.8 | 11.3 | 0.00 | 0.00 | 0.00 | 50 | 1018.3 |
| 20260904094548 | 28 | 57 | 1.6 | 9.7 | 0.00 | 0.00 | 0.00 | 51 | 1018.4 |
| 20260904084534 | 27 | 110 | 3.2 | 8.0 | 0.00 | 0.00 | 0.00 | 53 | 1018.6 |
| 20260904083029 | 27 | 138 | 3.2 | 8.0 | 0.00 | 0.00 | 0.00 | 53 | 1018.5 |
| 20260904081525 | 28 | 148 | 1.6 | 6.4 | 0.00 | 0.00 | 0.00 | 51 | 1018.4 |
| 20260904080030 | 27 | 177 | 1.6 | 4.8 | 0.00 | 0.00 | 0.00 | 53 | 1018.5 |
| 20260904074526 | 27 | 19 | 0.0 | 3.2 | 0.00 | 0.00 | 0.00 | 55 | 1018.5 |
| 20260904073014 | 26 | 346 | 0.0 | 3.2 | 0.00 | 0.00 | 0.00 | 60 | 1018.5 |
| 20260904071508 | 25 | 346 | 1.6 | 4.8 | 0.00 | 0.00 | 0.00 | 63 | 1018.3 |
| 20260904070004 | 24 | 46 | 1.6 | 8.0 | 0.00 | 0.00 | 0.00 | 66 | 1018.2 |
| 20260904064619 | 23 | 355 | 1.6 | 4.8 | 0.00 | 0.00 | 0.00 | 68 | 1018.3 |
| 20260904063055 | 22 | 41 | 3.2 | 6.4 | 0.00 | 0.00 | 0.00 | 70 | 1018.2 |
| 20260904061552 | 21 | 42 | 3.2 | 6.4 | 0.00 | 0.00 | 0.00 | 73 | 1018.1 |
| 20260904060046 | 20 | 40 | 1.6 | 4.8 | 0.00 | 0.00 | 0.00 | 74 | 1018.1 |
| 20260904054543 | 20 | 34 | 3.2 | 4.8 | 0.00 | 0.00 | 0.00 | 76 | 1018.1 |
| 20260904053041 | 18 | 42 | 4.8 | 8.0 | 0.00 | 0.00 | 0.00 | 79 | 1018.0 |
| 20260904051536 | 18 | 37 | 4.8 | 9.7 | 0.00 | 0.00 | 0.00 | 80 | 1017.8 |
| 20260904050032 | 18 | 34 | 6.4 | 9.7 | 0.00 | 0.00 | 0.00 | 80 | 1017.7 |
| 20260904044541 | 18 | 40 | 3.2 | 8.0 | 0.00 | 0.00 | 0.00 | 79 | 1017.5 |
| 20260904043030 | 18 | 28 | 4.8 | 12.9 | 0.00 | 0.00 | 0.00 | 79 | 1017.5 |
| 20260904041536 | 18 | 9 | 3.2 | 8.0 | 0.00 | 0.00 | 0.00 | 79 | 1017.6 |
| 20260904040029 | 18 | 39 | 6.4 | 12.9 | 0.00 | 0.00 | 0.00 | 79 | 1017.5 |
| 20260904034528 | 18 | 43 | 4.8 | 8.0 | 0.00 | 0.00 | 0.00 | 79 | 1017.5 |
| 20260904033027 | 18 | 32 | 6.4 | 9.7 | 0.00 | 0.00 | 0.00 | 79 | 1017.6 |
| 20260904031526 | 18 | 44 | 8.0 | 12.9 | 0.00 | 0.00 | 0.00 | 79 | 1017.7 |
| 20260904030027 | 19 | 40 | 4.8 | 11.3 | 0.00 | 0.00 | 0.00 | 79 | 1017.6 |
| 20260904024524 | 18 | 38 | 8.0 | 9.7 | 0.00 | 0.00 | 0.00 | 80 | 1017.6 |
| 20260904023023 | 19 | 22 | 6.4 | 9.7 | 0.00 | 0.00 | 0.00 | 79 | 1017.7 |
| 20260904021521 | 20 | 28 | 3.2 | 6.4 | 0.00 | 0.00 | 0.00 | 78 | 1017.6 |
| 20260904020032 | 20 | 34 | 3.2 | 4.8 | 0.00 | 0.00 | 0.00 | 78 | 1017.5 |
| 20260904014518 | 20 | 34 | 1.6 | 8.0 | 0.00 | 0.00 | 0.00 | 78 | 1017.5 |
| 20260904013017 | 20 | 39 | 6.4 | 8.0 | 0.00 | 0.00 | 0.00 | 78 | 1017.4 |
| 20260904011516 | 20 | 44 | 8.0 | 11.3 | 0.00 | 0.00 | 0.00 | 78 | 1017.3 |
| 20260904010017 | 20 | 355 | 4.8 | 8.0 | 0.00 | 0.00 | 0.00 | 78 | 1017.3 |
| 20260904004515 | 20 | 41 | 4.8 | 8.0 | 0.00 | 0.00 | 0.00 | 78 | 1017.4 |
| 20260904003013 | 20 | 355 | 3.2 | 4.8 | 0.00 | 0.00 | 0.00 | 77 | 1017.5 |
| 20260904001512 | 20 | 32 | 3.2 | 4.8 | 0.00 | 0.00 | 0.00 | 77 | 1017.5 |
| 20260904000009 | 21 | 27 | 1.6 | 4.8 | 0.00 | 0.00 | 0.00 | 76 | 1017.6 |
| 20260903234510 | 21 | 5 | 1.6 | 4.8 | 0.00 | 0.00 | 0.00 | 75 | 1017.7 |
| 20260903233008 | 21 | 34 | 6.4 | 9.7 | 0.00 | 0.00 | 0.00 | 75 | 1017.7 |
| 20260903231506 | 21 | 34 | 4.8 | 9.7 | 0.00 | 0.00 | 0.00 | 76 | 1017.7 |
| 20260903230005 | 21 | 39 | 6.4 | 9.7 | 0.00 | 0.00 | 0.00 | 76 | 1017.5 |
| 20260903224503 | 21 | 44 | 4.8 | 6.4 | 0.00 | 0.00 | 0.00 | 76 | 1017.4 |
| 20260903223002 | 21 | 355 | 3.2 | 6.4 | 0.00 | 0.00 | 0.00 | 75 | 1017.6 |
| 20260903221503 | 21 | 34 | 4.8 | 9.7 | 0.00 | 0.00 | 0.00 | 75 | 1017.6 |
| 20260903220106 | 21 | 26 | 4.8 | 12.9 | 0.00 | 0.00 | 0.00 | 75 | 1017.7 |
| 20260903214557 | 21 | 38 | 4.8 | 8.0 | 0.00 | 0.00 | 0.00 | 74 | 1017.7 |
| 20260903213057 | 22 | 36 | 4.8 | 8.0 | 0.00 | 0.00 | 0.00 | 74 | 1017.6 |
| 20260903211608 | 22 | 42 | 3.2 | 8.0 | 0.00 | 0.00 | 0.00 | 74 | 1017.5 |
| 20260903210056 | 22 | 28 | 6.4 | 9.7 | 0.00 | 0.00 | 0.00 | 74 | 1017.5 |
| 20260903204601 | 22 | 346 | 3.2 | 9.7 | 0.00 | 0.00 | 0.00 | 74 | 1017.5 |
| 20260903203055 | 22 | 18 | 3.2 | 8.0 | 0.00 | 0.00 | 0.00 | 74 | 1017.4 |
| 20260903201555 | 22 | 41 | 3.2 | 6.4 | 0.00 | 0.00 | 0.00 | 74 | 1017.3 |
| 20260903200059 | 23 | 9 | 1.6 | 4.8 | 0.00 | 0.00 | 0.00 | 72 | 1017.3 |
| 20260903194555 | 23 | 39 | 1.6 | 6.4 | 0.00 | 0.00 | 0.00 | 71 | 1017.2 |
| 20260903193058 | 23 | 41 | 4.8 | 8.0 | 0.00 | 0.00 | 0.00 | 71 | 1017.2 |
| 20260903191601 | 23 | 38 | 4.8 | 9.7 | 0.00 | 0.00 | 0.00 | 70 | 1017.1 |
| 20260903190053 | 24 | 28 | 3.2 | 4.8 | 0.00 | 0.00 | 0.00 | 68 | 1016.8 |
| 20260903184553 | 25 | 38 | 3.2 | 4.8 | 0.00 | 0.00 | 0.00 | 66 | 1016.7 |
| 20260903183114 | 26 | 36 | 3.2 | 6.4 | 0.00 | 0.00 | 0.00 | 63 | 1016.5 |
| 20260903181557 | 27 | 267 | 1.6 | 3.2 | 0.00 | 0.00 | 0.00 | 59 | 1016.4 |
| 20260903180049 | 28 | 267 | 0.0 | 1.6 | 0.00 | 0.00 | 0.00 | 56 | 1016.3 |
| 20260903174548 | 28 | 267 | 0.0 | 3.2 | 0.00 | 0.00 | 0.00 | 52 | 1016.2 |
| 20260903173056 | 29 | 267 | 0.0 | 0.0 | 0.00 | 0.00 | 0.00 | 51 | 1016.1 |
| 20260903171556 | 29 | 267 | 0.0 | 1.6 | 0.00 | 0.00 | 0.00 | 48 | 1016.2 |